Powrót do katalogu

OPS 4682 DEB

AktywnyPO
NORAD 14716·DEBRIS·🇺🇸 United States

Wystrzelony Apr 3, 1965 z Vandenberg Space Force Base

Loading…

Następne Przeloty (najbliższe 24 godziny)

TLE

ŚwieżeSource: Space-Track

Epoka: Sep 13, 2026, 15:05 UTC

1 14716U 65027P   26256.62902648  .00000902  00000-0  29815-2 0  9995
2 14716  90.2575  16.2302 0030175  82.5305 290.7103 12.99693798450961

Śledź OPS 4682 DEB w czasie rzeczywistym z AllMySat

Download on the App Store